| time (UTC) | temp F | wind direction | speed knots | gust knots | rain 1hr in | rain 24hr in | rain mn in | humidity % | barometer mb |
| 20260503223017 | 67 | 135 | 2.6 | 7.0 | 0.00 | 0.01 | 0.01 | 57 | 1017.6 |
| 20260503221532 | 67 | 132 | 2.6 | 7.0 | 0.00 | 0.01 | 0.01 | 55 | 1017.5 |
| 20260503220030 | 68 | 153 | 4.3 | 7.8 | 0.00 | 0.01 | 0.01 | 55 | 1017.2 |
| 20260503214529 | 68 | 153 | 1.7 | 6.1 | 0.00 | 0.01 | 0.01 | 56 | 1017.3 |
| 20260503213032 | 68 | 171 | 3.5 | 7.8 | 0.00 | 0.01 | 0.01 | 55 | 1017.3 |
| 20260503211516 | 68 | 184 | 3.5 | 7.8 | 0.00 | 0.01 | 0.01 | 53 | 1017.3 |
| 20260503210025 | 68 | 172 | 1.7 | 7.8 | 0.00 | 0.01 | 0.01 | 55 | 1017.5 |
| 20260503204507 | 68 | 166 | 3.5 | 9.6 | 0.00 | 0.01 | 0.01 | 54 | 1017.6 |
| 20260503203028 | 68 | 193 | 2.6 | 7.8 | 0.00 | 0.01 | 0.01 | 54 | 1017.5 |
| 20260503201530 | 69 | 169 | 3.5 | 10.4 | 0.00 | 0.01 | 0.01 | 52 | 1017.8 |
| 20260503200034 | 71 | 336 | 1.7 | 4.3 | 0.00 | 0.01 | 0.01 | 42 | 1017.8 |
| 20260503194527 | 70 | 205 | 1.7 | 7.0 | 0.00 | 0.01 | 0.01 | 42 | 1018.0 |
| 20260503193033 | 71 | 178 | 0.0 | 2.6 | 0.00 | 0.01 | 0.01 | 41 | 1018.3 |
| 20260503191516 | 70 | 324 | 1.7 | 4.3 | 0.00 | 0.01 | 0.01 | 41 | 1018.6 |
| 20260503190020 | 70 | 263 | 1.7 | 5.2 | 0.00 | 0.01 | 0.01 | 42 | 1018.9 |
| 20260503184538 | 69 | 268 | 1.7 | 6.1 | 0.00 | 0.01 | 0.01 | 41 | 1019.1 |
| 20260503183030 | 69 | 176 | 1.7 | 6.1 | 0.00 | 0.01 | 0.01 | 41 | 1019.3 |
| 20260503181527 | 68 | 120 | 0.9 | 3.5 | 0.00 | 0.01 | 0.01 | 44 | 1019.5 |
| 20260503180033 | 69 | 26 | 2.6 | 9.6 | 0.01 | 0.01 | 0.01 | 45 | 1019.6 |
| 20260503174543 | 69 | 36 | 3.5 | 7.0 | 0.01 | 0.01 | 0.01 | 43 | 1019.6 |
| 20260503173039 | 67 | 82 | 1.7 | 3.5 | 0.01 | 0.01 | 0.01 | 45 | 1019.6 |
| 20260503171529 | 67 | 294 | 0.9 | 7.0 | 0.01 | 0.01 | 0.01 | 47 | 1019.8 |
| 20260503053019 | 52 | 317 | 0.0 | 0.9 | 0.00 | 0.01 | 0.00 | 93 | 1016.5 |
| 20260503051536 | 52 | 330 | 0.0 | 1.7 | 0.00 | 0.01 | 0.00 | 1016.2 | |
| 20260503050026 | 52 | 330 | 0.0 | 1.7 | 0.00 | 0.01 | 0.00 | 1016.2 | |
| 20260503040029 | 53 | 312 | 0.0 | 2.6 | 0.00 | 0.01 | 0.00 | 93 | 1015.6 |
| 20260503034529 | 54 | 346 | 0.9 | 3.5 | 0.00 | 0.01 | 0.01 | 93 | 1015.6 |
| 20260503033038 | 54 | 332 | 1.7 | 3.5 | 0.00 | 0.01 | 0.01 | 93 | 1015.3 |
| 20260503030045 | 54 | 349 | 0.0 | 1.7 | 0.00 | 0.01 | 0.01 | 93 | 1015.0 |
| 20260503024534 | 54 | 342 | 0.9 | 2.6 | 0.00 | 0.01 | 0.01 | 92 | 1014.7 |
| 20260503023030 | 55 | 9 | 0.0 | 1.7 | 0.00 | 0.01 | 0.01 | 92 | 1014.5 |
| 20260503021525 | 55 | 292 | 0.9 | 4.3 | 0.00 | 0.01 | 0.01 | 92 | 1014.4 |
| 20260503020024 | 55 | 318 | 0.9 | 2.6 | 0.00 | 0.01 | 0.01 | 92 | 1014.2 |
| 20260503014530 | 55 | 298 | 0.9 | 3.5 | 0.00 | 0.01 | 0.01 | 92 | 1013.9 |
| 20260503013007 | 55 | 33 | 0.9 | 2.6 | 0.00 | 0.01 | 0.01 | 92 | 1013.7 |
| 20260503011509 | 55 | 352 | 0.9 | 2.6 | 0.00 | 0.01 | 0.01 | 92 | 1013.5 |
| 20260503010010 | 56 | 352 | 1.7 | 3.5 | 0.00 | 0.01 | 0.01 | 92 | 1013.6 |
| 20260503004504 | 56 | 304 | 0.9 | 5.2 | 0.00 | 0.01 | 0.01 | 92 | 1013.5 |
| 20260503003008 | 56 | 9 | 0.9 | 4.3 | 0.00 | 0.01 | 0.01 | 92 | 1013.2 |
| 20260503001511 | 56 | 37 | 1.7 | 2.6 | 0.00 | 0.01 | 0.01 | 92 | 1012.9 |
| 20260503000027 | 56 | 338 | 0.9 | 4.3 | 0.00 | 0.01 | 0.01 | 92 | 1012.8 |
| 20260502234513 | 56 | 55 | 2.6 | 7.0 | 0.00 | 0.01 | 0.01 | 92 | 1012.6 |
| 20260502233004 | 56 | 24 | 1.7 | 5.2 | 0.00 | 0.01 | 0.01 | 92 | 1012.5 |
| 20260502231512 | 56 | 14 | 1.7 | 5.2 | 0.00 | 0.01 | 0.01 | 92 | 1012.1 |
| 20260502230016 | 56 | 315 | 4.3 | 9.6 | 0.00 | 0.01 | 0.01 | 93 | 1011.9 |
| 20260502224517 | 56 | 16 | 1.7 | 7.8 | 0.00 | 0.01 | 0.01 | 93 | 1011.8 |